This is the latest recevied weather packets stored in our database for station/object AF9W-5. If no packets are shown the sender has not sent any weather packets the latest 10 day(s).
| Time | Temp. | Humidity | Pressure | Rain* | Wind** | Luminosity | Snow |
|---|---|---|---|---|---|---|---|
| 1777705890 | 16.67° C | 36% | 1013.4 hPa | 0 mm | - | 0 W/m² | - |
| 1777705588 | 17.22° C | 35% | 1013.4 hPa | 0 mm | - | 0 W/m² | - |
| 1777705286 | 17.78° C | 34% | 1013.4 hPa | 0 mm | - | 0 W/m² | - |
| 1777704984 | 17.78° C | 33% | 1013.4 hPa | 0 mm | - | 0 W/m² | - |
| 1777704681 | 16.67° C | 36% | 1013.3 hPa | 0 mm | - | 0 W/m² | - |
| 1777704380 | 16.67° C | 36% | 1013.3 hPa | 0 mm | - | 0 W/m² | - |
| 1777704076 | 17.22° C | 36% | 1013.4 hPa | 0 mm | - | 0 W/m² | - |
| 1777703774 | 17.22° C | 35% | 1013.2 hPa | 0 mm | - | 0 W/m² | - |
| 1777703471 | 17.22° C | 35% | 1013.3 hPa | 0 mm | - | 0 W/m² | - |
| 1777703169 | 17.22° C | 35% | 1013.5 hPa | 0 mm | - | 0 W/m² | - |
| 1777702866 | 17.78° C | 34% | 1013.3 hPa | 0 mm | - | 0 W/m² | - |
| 1777702565 | 17.78° C | 33% | 1013.2 hPa | 0 mm | - | 0 W/m² | - |
| 1777702262 | 17.78° C | 35% | 1013.3 hPa | 0 mm | - | 0 W/m² | - |
| 1777701962 | 17.78° C | 33% | 1013.3 hPa | 0 mm | - | 0 W/m² | - |
| 1777701659 | 18.33° C | 33% | 1013.1 hPa | 0 mm | - | 0 W/m² | - |
| 1777701356 | 17.78° C | 33% | 1013.3 hPa | 0 mm | - | 0 W/m² | - |
| 1777701055 | 18.33° C | 34% | 1013.1 hPa | 0 mm | - | 0 W/m² | - |
| 1777700753 | 18.33° C | 33% | 1013 hPa | 0 mm | - | 0 W/m² | - |
| 1777700450 | 18.89° C | 31% | 1013.2 hPa | 0 mm | - | 0 W/m² | - |
| 1777700147 | 18.89° C | 32% | 1013.2 hPa | 0 mm | - | 0 W/m² | - |
| 1777699845 | 18.89° C | 32% | 1012.9 hPa | 0 mm | - | 0 W/m² | - |
| 1777699543 | 18.89° C | 31% | 1013.1 hPa | 0 mm | - | 0 W/m² | - |
| 1777699241 | 19.44° C | 31% | 1012.5 hPa | 0 mm | - | 0 W/m² | - |
| 1777698938 | 18.89° C | 32% | 1012.6 hPa | 0 mm | - | 0 W/m² | - |
| 1777698636 | 19.44° C | 32% | 1012.9 hPa | 0 mm | - | 0 W/m² | - |
* Rain latest hour (hover to see other rain measurements)
** Current wind speed in m/s (hover to see current wind gust speed)